This is the latest recevied weather packets stored in our database for station/object K5GTX. If no packets are shown the sender has not sent any weather packets the latest 1 day(s).
| Time | Temp. | Humidity | Pressure | Rain* | Wind** | Luminosity | Snow |
|---|---|---|---|---|---|---|---|
| 1777990589 | 23.89° C | 99% | 1011.4 hPa | 0 mm | 2.24 m/s, 252° | 79 W/m² | - |
| 1777990286 | 23.33° C | 99% | 1011.4 hPa | 0 mm | 0.45 m/s, 120° | 154 W/m² | - |
| 1777989982 | 23.33° C | 99% | 1011.6 hPa | 0 mm | 4.02 m/s, 241° | 164 W/m² | - |
| 1777989679 | 22.78° C | 99% | 1011.4 hPa | 0 mm | 0.89 m/s, 135° | 139 W/m² | - |
| 1777989375 | 22.78° C | 99% | 1011.6 hPa | 0 mm | 0.89 m/s, 125° | 116 W/m² | - |
| 1777989073 | 22.78° C | 99% | 1011.2 hPa | 0 mm | 0.89 m/s, 184° | 150 W/m² | - |
| 1777988768 | 22.78° C | 99% | 1010.9 hPa | 0 mm | 1.34 m/s, 201° | 117 W/m² | - |
| 1777988466 | 22.78° C | 99% | 1011.1 hPa | 0 mm | 3.13 m/s, 223° | 91 W/m² | - |
| 1777988162 | 22.78° C | 99% | 1011 hPa | 0 mm | 0 m/s | 88 W/m² | - |
| 1777987858 | 22.78° C | 99% | 1011.1 hPa | 0 mm | 1.79 m/s, 290° | 97 W/m² | - |
| 1777987554 | 22.78° C | 99% | 1011.5 hPa | 0 mm | 1.34 m/s, 200° | 76 W/m² | - |
| 1777987253 | 22.78° C | 99% | 1011.4 hPa | 0 mm | 1.34 m/s, 174° | 88 W/m² | - |
| 1777986949 | 22.78° C | 99% | 1011.4 hPa | 0 mm | 0.89 m/s, 225° | 65 W/m² | - |
| 1777986647 | 22.22° C | 99% | 1011.4 hPa | 0 mm | 1.34 m/s, 250° | 72 W/m² | - |
| 1777986345 | 22.22° C | 99% | 1011.2 hPa | 0 mm | 0.45 m/s, 234° | 87 W/m² | - |
| 1777986043 | 22.22° C | 99% | 1011.1 hPa | 0 mm | 0.89 m/s, 146° | 46 W/m² | - |
| 1777985739 | 22.22° C | 99% | 1011 hPa | 0 mm | 0.45 m/s, 198° | 55 W/m² | - |
| 1777985436 | 22.22° C | 99% | 1011 hPa | 0 mm | 0 m/s | 55 W/m² | - |
| 1777985133 | 22.22° C | 99% | 1010.9 hPa | 0 mm | 0 m/s | 35 W/m² | - |
| 1777984829 | 22.22° C | 99% | 1011.2 hPa | 0 mm | 0 m/s | 24 W/m² | - |
| 1777984525 | 22.22° C | 99% | 1010.8 hPa | 0 mm | 1.34 m/s, 231° | 23 W/m² | - |
| 1777984221 | 22.22° C | 99% | 1010.7 hPa | 0 mm | 0 m/s | 24 W/m² | - |
| 1777983919 | 22.22° C | 99% | 1010.5 hPa | 0 mm | 0 m/s | 22 W/m² | - |
| 1777983616 | 22.22° C | 99% | 1010.7 hPa | 0 mm | 1.79 m/s, 157° | 12 W/m² | - |
| 1777983312 | 21.67° C | 99% | 1010.7 hPa | 0 mm | 0 m/s | 13 W/m² | - |
* Rain latest hour (hover to see other rain measurements)
** Current wind speed in m/s (hover to see current wind gust speed)